• In Belarus
  • List of Countries
  • For 7 days
  • Water Temperature
  • Satellite Maps
  • Weather Map
  • Weather Widgets
  • user-avatar
    Login

    Hourly Weather Newcastle

    Today, 19 May, Sunday

    Time Temperature Precipitation Wind Pressure Humidity
    00:00 +14°C° 0 mm 2 mps 771 mmHg 95%
    01:00 +14°C° 0 mm 2 mps 771 mmHg 95%
    02:00 +14°C° 0 mm 2 mps 771 mmHg 95%
    03:00 +14°C° 0 mm 2 mps 771 mmHg 96%
    04:00 +14°C° 0 mm 2 mps 771 mmHg 96%
    05:00 +14°C° 0 mm 2 mps 771 mmHg 96%
    06:00 +14°C° 0 mm 2 mps 771 mmHg 97%
    07:00 +14°C° 0 mm 2 mps 772 mmHg 97%
    08:00 +16°C° 0.1 mm 2 mps 772 mmHg 89%
    09:00 +19°C° 0.1 mm 2 mps 772 mmHg 80%
    10:00 +23°C° 0 mm 2 mps 772 mmHg 68%
    11:00 +24°C° 0.1 mm 2 mps 771 mmHg 63%
    12:00 +24°C° 0.1 mm 1 mps 771 mmHg 58%
    13:00 +25°C° 0.1 mm 1 mps 770 mmHg 54%
    14:00 +24°C° 0 mm 1 mps 770 mmHg 57%
    15:00 +24°C° 0 mm 2 mps 770 mmHg 61%
    16:00 +22°C° 0 mm 1 mps 770 mmHg 71%
    17:00 +21°C° 0 mm 1 mps 770 mmHg 77%
    18:00 +18°C° 0 mm 2 mps 770 mmHg 82%
    19:00 +17°C° 0 mm 2 mps 770 mmHg 87%
    20:00 +16°C° 0 mm 2 mps 770 mmHg 88%
    21:00 +16°C° 0 mm 2 mps 771 mmHg 88%
    22:00 +16°C° 0 mm 2 mps 771 mmHg 88%
    23:00 +15°C° 0 mm 2 mps 770 mmHg 89%

    Tomorrow, 20 May, Monday

    Time Temperature Precipitation Wind Pressure Humidity
    00:00 +15°C° 0 mm 2 mps 770 mmHg 89%
    01:00 +14°C° 0 mm 3 mps 770 mmHg 90%
    02:00 +14°C° 0 mm 2 mps 770 mmHg 90%
    03:00 +14°C° 0 mm 2 mps 770 mmHg 89%
    04:00 +14°C° 0 mm 2 mps 770 mmHg 89%
    05:00 +14°C° 0 mm 2 mps 770 mmHg 89%
    06:00 +14°C° 0 mm 2 mps 770 mmHg 89%
    07:00 +13°C° 0 mm 2 mps 770 mmHg 90%
    08:00 +16°C° 0 mm 2 mps 770 mmHg 80%
    09:00 +18°C° 0 mm 2 mps 770 mmHg 70%
    10:00 +20°C° 0 mm 2 mps 770 mmHg 60%
    11:00 +23°C° 0 mm 2 mps 769 mmHg 55%
    12:00 +24°C° 0 mm 2 mps 768 mmHg 50%
    13:00 +25°C° 0 mm 2 mps 768 mmHg 45%
    14:00 +25°C° 0 mm 2 mps 768 mmHg 48%
    15:00 +24°C° 0 mm 2 mps 767 mmHg 51%
    16:00 +23°C° 0 mm 2 mps 767 mmHg 54%
    17:00 +21°C° 0 mm 3 mps 767 mmHg 60%
    18:00 +19°C° 0 mm 3 mps 768 mmHg 65%
    19:00 +17°C° 0 mm 4 mps 768 mmHg 70%
    20:00 +17°C° 0 mm 4 mps 768 mmHg 73%
    21:00 +16°C° 0 mm 3 mps 768 mmHg 75%
    22:00 +16°C° 0 mm 3 mps 769 mmHg 78%
    23:00 +14°C° 0 mm 3 mps 768 mmHg 76%

    Day after tomorrow, 21 May, Tuesday

    Time Temperature Precipitation Wind Pressure Humidity
    00:00 +14°C° 0 mm 3 mps 768 mmHg 75%
    01:00 +14°C° 0 mm 3 mps 768 mmHg 73%
    02:00 +14°C° 0 mm 3 mps 768 mmHg 73%
    03:00 +14°C° 0 mm 3 mps 768 mmHg 73%
    04:00 +13°C° 0 mm 3 mps 768 mmHg 72%
    05:00 +13°C° 0 mm 3 mps 768 mmHg 72%
    06:00 +13°C° 0 mm 3 mps 768 mmHg 72%
    07:00 +13°C° 0 mm 3 mps 768 mmHg 72%
    08:00 +17°C° 0 mm 3 mps 769 mmHg 66%
    09:00 +19°C° 0 mm 3 mps 769 mmHg 60%
    10:00 +21°C° 0 mm 3 mps 769 mmHg 54%
    11:00 +24°C° 0 mm 3 mps 768 mmHg 50%
    12:00 +26°C° 0 mm 2 mps 768 mmHg 45%
    13:00 +27°C° 0 mm 1 mps 767 mmHg 41%
    14:00 +26°C° 0 mm 1 mps 767 mmHg 45%
    15:00 +26°C° 0 mm 1 mps 767 mmHg 49%
    16:00 +25°C° 0 mm 1 mps 767 mmHg 53%
    17:00 +23°C° 0 mm 1 mps 767 mmHg 57%
    18:00 +21°C° 0 mm 2 mps 768 mmHg 61%
    19:00 +19°C° 0 mm 2 mps 768 mmHg 65%
    20:00 +19°C° 0 mm 2 mps 769 mmHg 65%
    21:00 +18°C° 0 mm 2 mps 769 mmHg 66%
    22:00 +18°C° 0 mm 2 mps 769 mmHg 66%
    23:00 +18°C° 0 mm 2 mps 769 mmHg 67%

    22 May, Wednesday

    Time Temperature Precipitation Wind Pressure Humidity
    00:00 +17°C° 0 mm 2 mps 769 mmHg 68%
    01:00 +17°C° 0 mm 2 mps 769 mmHg 68%
    02:00 +16°C° 0 mm 2 mps 769 mmHg 69%
    03:00 +16°C° 0 mm 2 mps 769 mmHg 70%
    04:00 +16°C° 0 mm 3 mps 768 mmHg 71%
    05:00 +16°C° 0 mm 3 mps 769 mmHg 72%
    06:00 +16°C° 0 mm 3 mps 769 mmHg 73%
    07:00 +14°C° 0 mm 3 mps 769 mmHg 73%
    08:00 +18°C° 0 mm 2 mps 770 mmHg 67%
    09:00 +20°C° 0 mm 2 mps 770 mmHg 60%
    10:00 +23°C° 0 mm 2 mps 770 mmHg 53%
    11:00 +25°C° 0 mm 2 mps 769 mmHg 49%
    12:00 +26°C° 0 mm 1 mps 769 mmHg 45%
    13:00 +28°C° 0 mm 1 mps 768 mmHg 40%
    14:00 +27°C° 0 mm 1 mps 768 mmHg 45%
    15:00 +26°C° 0 mm 2 mps 768 mmHg 50%
    16:00 +25°C° 0 mm 2 mps 768 mmHg 55%
    17:00 +23°C° 0 mm 2 mps 769 mmHg 62%
    18:00 +21°C° 0 mm 1 mps 769 mmHg 69%
    19:00 +19°C° 0 mm 1 mps 769 mmHg 76%
    20:00 +19°C° 0 mm 1 mps 769 mmHg 76%
    21:00 +19°C° 0 mm 1 mps 770 mmHg 76%
    22:00 +19°C° 0 mm 1 mps 770 mmHg 75%
    23:00 +19°C° 0 mm 1 mps 770 mmHg 76%

    23 May, Thursday

    Time Temperature Precipitation Wind Pressure Humidity
    00:00 +19°C° 0 mm 1 mps 770 mmHg 76%
    01:00 +19°C° 0 mm 1 mps 769 mmHg 77%
    02:00 +19°C° 0 mm 1 mps 769 mmHg 82%
    03:00 +18°C° 0 mm 1 mps 769 mmHg 87%
    04:00 +16°C° 0 mm 2 mps 769 mmHg 91%
    05:00 +16°C° 0 mm 2 mps 770 mmHg 93%
    06:00 +16°C° 0 mm 2 mps 770 mmHg 95%
    07:00 +15°C° 0 mm 2 mps 770 mmHg 96%
    08:00 +18°C° 0 mm 2 mps 770 mmHg 86%
    09:00 +20°C° 0 mm 2 mps 770 mmHg 77%
    10:00 +23°C° 0 mm 2 mps 770 mmHg 67%
    11:00 +24°C° 0.2 mm 2 mps 770 mmHg 63%
    12:00 +25°C° 0.2 mm 2 mps 769 mmHg 59%
    13:00 +25°C° 0.2 mm 2 mps 768 mmHg 54%
    14:00 +24°C° 0.1 mm 2 mps 768 mmHg 60%
    15:00 +23°C° 0.1 mm 2 mps 768 mmHg 66%
    16:00 +21°C° 0.1 mm 2 mps 768 mmHg 71%
    17:00 +21°C° 0 mm 1 mps 768 mmHg 78%
    18:00 +19°C° 0 mm 1 mps 769 mmHg 84%
    19:00 +16°C° 0 mm 0 mps 769 mmHg 90%
    20:00 +16°C° 0 mm 1 mps 769 mmHg 91%
    21:00 +16°C° 0 mm 1 mps 769 mmHg 92%
    22:00 +16°C° 0 mm 1 mps 769 mmHg 93%
    23:00 +15°C° 0 mm 1 mps 769 mmHg 94%

    24 May, Friday

    Time Temperature Precipitation Wind Pressure Humidity
    00:00 +15°C° 0 mm 1 mps 768 mmHg 95%
    01:00 +15°C° 0 mm 1 mps 768 mmHg 96%
    02:00 +14°C° 0 mm 2 mps 768 mmHg 96%
    03:00 +14°C° 0 mm 2 mps 768 mmHg 96%
    04:00 +14°C° 0 mm 2 mps 768 mmHg 96%
    05:00 +14°C° 0 mm 2 mps 768 mmHg 96%
    06:00 +14°C° 0 mm 2 mps 768 mmHg 95%
    07:00 +13°C° 0 mm 2 mps 768 mmHg 95%
    08:00 +16°C° 0 mm 2 mps 768 mmHg 85%
    09:00 +18°C° 0 mm 2 mps 768 mmHg 76%
    10:00 +20°C° 0 mm 2 mps 768 mmHg 67%
    11:00 +23°C° 0 mm 2 mps 767 mmHg 59%
    12:00 +24°C° 0 mm 2 mps 766 mmHg 52%
    13:00 +26°C° 0 mm 2 mps 766 mmHg 44%
    14:00 +25°C° 0 mm 2 mps 765 mmHg 47%
    15:00 +25°C° 0 mm 2 mps 765 mmHg 50%
    16:00 +24°C° 0 mm 2 mps 765 mmHg 53%
    17:00 +21°C° 0 mm 2 mps 765 mmHg 58%
    18:00 +19°C° 0 mm 3 mps 766 mmHg 62%
    19:00 +17°C° 0 mm 3 mps 766 mmHg 67%
    20:00 +17°C° 0 mm 3 mps 766 mmHg 67%
    21:00 +17°C° 0 mm 3 mps 766 mmHg 67%
    22:00 +16°C° 0 mm 3 mps 766 mmHg 67%
    23:00 +16°C° 0 mm 3 mps 766 mmHg 65%
    Show more